Content
SEND FEEDBACK

Daily
Averages
Monthly
Summary
United Kingdom

CHRISTCHURCH, ENGLAND


Home > Europe > United Kingdom > England
Elevation: 30 feet     Latitude: 50 44N     Longitude: 001 44W

WEATHER
 
SELECT A DAY
Number of Records: 252,671;   Date Range: 7/1/96 - 7/26/14
 
SHARE

PRINT THIS DATA

[ ← Previous Day ]
WEATHER ALMANAC - OCTOBER 5, 2013
[ Next Day → ]
[ °C ]   °F
Weather ElementAverageHighLow
Temperature58.2 °F66.2 °F (12:50 pm)46.4 °F (11:20 pm)
Dewpoint52.8 °F57.2 °F (9:20 am)46.4 °F (10:20 pm)
Humidity82.8 %100 % (1:20 am)55 % (3:50 pm)
Barometer30.15 in30.27 in (9:50 pm)29.98 in (1:20 am)
Wind Speed5.6 mph10.4 mph (10:20 am)
Weather ElementAverage
Visibility6.6 mi
Wind DirectionWNW (281.3 °)

Weather ElementTotal
Precipitation---
Heating Degree Days8.7 (Base 65)
Growing Degree Days6.3 (Base 50)
Averaged from 48 records on October 5, 2013
WEATHER CONDITIONS BREAKOUT
WIND DIRECTION BREAKOUT
WEATHER BY HOUR - OCTOBER 5, 2013
[ °C ]   °F
Local TimeTemperatureDewpointHumidityBarometerVisibilityWind DirectionWind SpeedGust SpeedPrecipitationEventsConditions
1:20 AM53.6 °F53.6 °F100 %29.98 inWest (270°)4.6 mphClear
1:50 AM51.8 °F50.0 °F94 %30.01 inWest (280°)4.6 mphClear
2:20 AM53.6 °F51.8 °F94 %30.01 in6.2 miVariable3.5 mphPartly Cloudy
2:50 AM51.8 °F51.8 °F100 %30.01 inWSW (240°)1.2 mphClear
3:20 AM53.6 °F53.6 °F100 %30.01 inWest (260°)5.8 mphClear
3:50 AM56.0 °F55.0 °F95 %30.02 in13.0 miWest (270°)6.9 mphOvercast
5:20 AM53.6 °F53.6 °F100 %30.04 inVariable2.3 mphClear
5:50 AM55.4 °F53.6 °F94 %30.04 inWNW (290°)6.9 mphClear
6:20 AM55.4 °F53.6 °F94 %30.04 inNW (310°)4.6 mphClear
6:50 AM55.4 °F53.6 °F94 %30.06 in5.6 miNNW (330°)2.3 mphMostly Cloudy
7:20 AM55.4 °F53.6 °F94 %30.06 in6.2 miVariable2.3 mphOvercast
7:50 AM55.4 °F53.6 °F94 %30.09 in5.6 miWest (270°)2.3 mphMostly Cloudy
8:20 AM55.4 °F55.4 °F100 %30.09 in4.3 miWest (270°)4.6 mphMostly Cloudy
8:50 AM57.2 °F55.4 °F94 %30.09 in5.6 miWest (280°)4.6 mphPartly Cloudy
9:20 AM59.0 °F57.2 °F94 %30.12 in6.2 miWNW (290°)8.1 mphPartly Cloudy
9:50 AM59.0 °F57.0 °F90 %30.14 in8.0 miWNW (290°)6.9 mphOvercast
9:50 AM59.0 °F57.2 °F94 %30.12 in6.2 miWNW (290°)6.9 mphPartly Cloudy
10:20 AM60.8 °F57.2 °F88 %30.12 in6.2 miWNW (300°)10.4 mphPartly Cloudy
10:50 AM60.8 °F57.2 °F88 %30.12 in6.2 miWNW (300°)9.2 mphPartly Cloudy
11:20 AM62.6 °F57.2 °F82 %30.15 in6.2 miNW (310°)8.1 mphPartly Cloudy
11:50 AM62.6 °F57.2 °F82 %30.15 in6.2 miWNW (290°)6.9 mphPartly Cloudy
12:20 PM64.4 °F57.2 °F77 %30.15 in6.2 miNW (310°)6.9 mphScattered Clouds
12:50 PM66.0 °F57.0 °F65 %30.17 in9.0 miWest (280°)5.8 mphScattered Clouds
12:50 PM66.2 °F57.2 °F73 %30.15 in6.2 miWest (280°)5.8 mphScattered Clouds
1:20 PM64.4 °F55.4 °F73 %30.15 in6.2 miNW (320°)8.1 mphMostly Cloudy
1:50 PM64.4 °F55.4 °F73 %30.15 in6.2 miWNW (300°)8.1 mphPartly Cloudy
2:20 PM64.4 °F55.4 °F73 %30.18 inNW (320°)9.2 mphClear
2:50 PM64.4 °F53.6 °F68 %30.18 inNW (310°)8.1 mphClear
3:20 PM64.4 °F51.8 °F64 %30.18 in6.2 miWNW (300°)9.2 mphPartly Cloudy
3:50 PM64.0 °F52.0 °F55 %30.20 in11.0 miNW (310°)8.1 mphPartly Cloudy
3:50 PM64.4 °F51.8 °F64 %30.18 in6.2 miNW (310°)9.2 mphScattered Clouds
4:20 PM66.2 °F51.8 °F60 %30.18 in6.2 miNNW (330°)6.9 mphPartly Cloudy
4:50 PM64.4 °F50.0 °F59 %30.18 in6.2 miNW (320°)9.2 mphPartly Cloudy
5:20 PM62.6 °F48.2 °F59 %30.21 in6.2 miNW (320°)8.1 mphPartly Cloudy
5:50 PM62.6 °F50.0 °F63 %30.21 in6.2 miNW (310°)8.1 mphScattered Clouds
6:20 PM60.8 °F50.0 °F68 %30.21 in6.2 miNW (310°)6.9 mphScattered Clouds
6:50 PM59.0 °F50.0 °F72 %30.21 in6.2 miNW (310°)5.8 mphScattered Clouds
6:50 PM59.0 °F50.0 °F64 %30.24 in9.0 miNW (310°)5.8 mphMostly Cloudy
7:20 PM57.2 °F50.0 °F77 %30.24 in6.2 miNW (320°)4.6 mphScattered Clouds
7:50 PM57.2 °F50.0 °F77 %30.24 in6.2 miWNW (300°)4.6 mphPartly Cloudy
8:20 PM57.2 °F50.0 °F77 %30.24 in6.2 miNW (310°)4.6 mphScattered Clouds
8:50 PM55.4 °F50.0 °F82 %30.24 in6.2 miNNW (330°)3.5 mphScattered Clouds
9:20 PM53.6 °F50.0 °F88 %30.24 in6.2 miWest (280°)2.3 mphPartly Cloudy
9:50 PM50.0 °F48.0 °F89 %30.27 in6.0 miNW (310°)1.2 mph
9:50 PM50.0 °F48.2 °F94 %30.27 inNW (310°)1.2 mphClear
10:20 PM48.2 °F46.4 °F93 %30.27 inNorth (360°)2.3 mphClear
10:50 PM48.2 °F48.2 °F100 %30.27 in5.6 miWNW (300°)1.2 mph
11:20 PM46.4 °F46.4 °F100 %30.27 in5.0 miWNW (290°)1.2 mphFogFog
Hourly data recorded from EGHH, located miles away from Christchurch, England







STORIES FROM OUR PARTNERS